This is the latest recevied weather packets stored in our database for station/object KF4CQ. If no packets are shown the sender has not sent any weather packets the latest 10 day(s).
| Time | Temp. | Humidity | Pressure | Rain* | Wind** | Luminosity | Snow |
|---|---|---|---|---|---|---|---|
| 1777499846 | 31.67° C | 50% | 1012.3 hPa | 0 mm | - | 46 W/m² | - |
| 1777499541 | 31.67° C | 50% | 1012.5 hPa | 0 mm | - | 47 W/m² | - |
| 1777499240 | 31.67° C | 51% | 1012.3 hPa | 0 mm | - | 50 W/m² | - |
| 1777498936 | 32.22° C | 49% | 1012.3 hPa | 0 mm | - | 50 W/m² | - |
| 1777498633 | 31.67° C | 50% | 1012.3 hPa | 0 mm | - | 53 W/m² | - |
| 1777498329 | 32.22° C | 49% | 1012.4 hPa | 0 mm | - | 67 W/m² | - |
| 1777498027 | 32.22° C | 49% | 1012.2 hPa | 0 mm | - | 69 W/m² | - |
| 1777497724 | 31.67° C | 50% | 1012.4 hPa | 0 mm | - | 103 W/m² | - |
| 1777497420 | 32.22° C | 50% | 1012.4 hPa | 0 mm | - | 300 W/m² | - |
| 1777497115 | 32.78° C | 49% | 1012.6 hPa | 0 mm | - | 385 W/m² | - |
| 1777496813 | 32.22° C | 49% | 1012.5 hPa | 0 mm | - | 378 W/m² | - |
| 1777496509 | 32.78° C | 49% | 1012.6 hPa | 0 mm | - | 367 W/m² | - |
| 1777496206 | 32.22° C | 49% | 1012.6 hPa | 0 mm | - | 314 W/m² | - |
| 1777495902 | 32.22° C | 49% | 1012.7 hPa | 0 mm | - | 82 W/m² | - |
| 1777495598 | 32.22° C | 50% | 1012.6 hPa | 0 mm | - | 72 W/m² | - |
| 1777495293 | 32.78° C | 49% | 1012.8 hPa | 0 mm | - | 276 W/m² | - |
| 1777494992 | 32.22° C | 49% | 1013 hPa | 0 mm | - | 507 W/m² | - |
| 1777494688 | 32.78° C | 50% | 1012.9 hPa | 0 mm | - | 505 W/m² | - |
| 1777494386 | 32.78° C | 50% | 1013 hPa | 0 mm | - | 182 W/m² | - |
| 1777494082 | 31.67° C | 51% | 1013 hPa | 0 mm | - | 510 W/m² | - |
| 1777493780 | 32.22° C | 50% | 1013.1 hPa | 0 mm | - | 323 W/m² | - |
| 1777493478 | 32.22° C | 51% | 1013.3 hPa | 0 mm | - | 175 W/m² | - |
| 1777493174 | 33.33° C | 49% | 1013.4 hPa | 0 mm | - | 103 W/m² | - |
| 1777492871 | 32.78° C | 50% | 1013.4 hPa | 0 mm | - | 292 W/m² | - |
| 1777492568 | 32.78° C | 51% | 1013.6 hPa | 0 mm | - | 317 W/m² | - |
* Rain latest hour (hover to see other rain measurements)
** Current wind speed in m/s (hover to see current wind gust speed)